Regional Weather Roundup
Issued by NWS Green Bay, WI

Home | Current Version | Previous Version | Graphics & Text | Print | Product List | Glossary Off
Versions: 1 2 3 4 5 6 7 8 9 10 11 12 13 14 15 16 17 18 19 20 21 22 23 24 25 26 27 28 29 30 31 32 33 34 35 36 37 38 39 40 41 42 43 44 45 46 47 48 49 50

000
ASUS43 KGRB 181900
RWRGRB

NORTH-CENTRAL AND NORTHEAST WISCONSIN REGIONAL WEATHER ROUNDUP
NATIONAL WEATHER SERVICE GREEN BAY WI
100 PM CST SAT NOV 18 2017

WIZ005-009-010>012-018-019-182000-
NORTH CENTRAL WISCONSIN

CITY           SKY/WX    TMP DP  RH WIND       PRES   REMARKS
IRONWOOD       CLOUDY   N/A N/A N/A NW10      29.71R
MANITOWISH WTR NOT AVBL
ARBOR VITAE    NOT AVBL
EAGLE RIVER    CLOUDY    32  30  93 N6        29.65R
LAND O LAKES   NOT AVBL
RHINELANDER    CLOUDY    33  31  92 VRB7      29.66R
PHILLIPS       CLOUDY    31  28  87 NW7       29.69R
ANTIGO         NOT AVBL
TOMAHAWK       NOT AVBL
MERRILL        CLOUDY    35  30  83 N13       29.67R
$$

WIZ013-073-182000-
NORTHEAST WISCONSIN

CITY           SKY/WX    TMP DP  RH WIND       PRES   REMARKS
IRON MOUNTAIN  CLOUDY    35  28  75 NW12      29.60F
MARINETTE      CLOUDY    39  32  76 N12G21    29.59F
$$

WIZ017-030-035>037-045-182000-
CENTRAL WISCONSIN

CITY           SKY/WX    TMP DP  RH WIND       PRES   REMARKS
MEDFORD        NOT AVBL
WAUSAU         CLOUDY    35  29  78 NW13G20   29.65R
MOSINEE        CLOUDY    36  30  80 NW12      29.67R
MARSHFIELD     CLOUDY    37  29  72 N15G22    29.66S
WISC RAPIDS    CLOUDY    38  30  73 N14G22    29.68R
STEVENS POINT  NOT AVBL
WAUPACA        NOT AVBL
SHAWANO        CLOUDY    39  31  73 N12       29.62S
CLINTONVILLE   NOT AVBL
WAUTOMA        CLOUDY    38  32  79 NW10G17   29.65R
$$

WIZ038-039-048-051-182000-
FOX VALLEY

CITY           SKY/WX    TMP DP  RH WIND       PRES   REMARKS
NWS GREEN BAY  CLOUDY    39  34  82 N13       29.61R
APPLETON       CLOUDY    37  30  75 N10G16    29.60R
OSHKOSH        CLOUDY    38  33  82 N14       29.60S
FOND DU LAC    CLOUDY    39  32  76 N16       29.61R
$$

WIZ022-050-052-182000-
EAST CENTRAL WISCONSIN

CITY           SKY/WX    TMP DP  RH WIND       PRES   REMARKS
EPHRAIM        NOT AVBL
WASHINGTON ISL NOT AVBL
STURGEON BAY   CLOUDY    38  34  85 N22G29    29.57S
MANITOWOC      CLOUDY    39  35  86 N17G26    29.56S
SHEBOYGAN      LGT RAIN  38  36  92 N15G25    29.56R
$$

LMZ563-521-522-541>543-182000-
LAKESHORE

STATION/POSITION TIME  TEMP    WIND        PRES    VSBY  WAVE
                       AIR SEA DIR/SP/G                  HT/PER
                 (UTC) (F)     (DEG/KT/KT) (MB)    (MI)  (FT/S)
SHEBOYGAN LKSHOR 1800   39     340/ 19/ 22 1000.6F
NORTHPORT PIER   1840   41     340/ 22/ 28 1001.0S
N MID LAKE BUOY  1750   42 48  360/ 19/ 23 1000.9F         5/ 5
SISTER BAY LKSHO 1819   41     350/ 24/ 27   N/A
$$




USA.gov is the U.S. government's official web portal to all federal, state and local government web resources and services.